Zurück zum Katalog

FENGYUN 1C DEB

AktivSSO
NORAD 32187·DEBRIS·🇨🇳 China

Gestartet May 10, 1999 von Taiyuan Satellite Launch Center

Loading…

Nächste Überflüge (nächste 24 Stunden)

TLE

AktuellSource: Space-Track

Epoche: Sep 12, 2026, 10:29 UTC

1 32187U 99025CUH 26255.43714388  .00000262  00000-0  36136-3 0  9996
2 32187  99.4818 327.1841 0293276 179.9926 246.0373 13.50651084699530

Verfolge FENGYUN 1C DEB in Echtzeit mit AllMySat

Download on the App Store